[[{"header":{"parameterUnit":"m.s-1","parameterCategory":1,"la1":30.2991,"la2":30.254,"lo1":-89.0895,"lo2":-89.0444,"dy":0.0017,"dx":0.0017,"nx":28,"ny":28,"refTime":"2025-03-05T09:00:00:Z","depth":0,"parameterNumber":2,"parameterNumberName":"U-component_of_WINDS"},"data":[0,0,0,0,0,0,0,0,0,0,0,0,0,0,0,0,0,0,0,0,0,0,0,0,0,0,0,0,0,0,0,0,0,0,0,0,0,0,0,0,0,0,0,0,0,0,0,0,0,0,0,0,0,0,0,0,0,0,8.4034,8.4035,0,8.4137,8.4138,8.4139,8.406,8.4056,8.4053,8.405,8.4157,8.4163,8.4169,0,0,0,0,0,0,0,0,0,0,0,0,0,8.3772,8.3777,8.4034,8.4035,8.4037,8.4137,8.4138,8.414,8.406,8.4056,8.4052,8.4048,8.4155,8.4162,8.417,0,0,0,0,0,0,0,0,0,0,0,0,0,8.3882,8.3779,8.4034,8.4009,8.4008,8.4137,8.4138,8.414,8.4061,8.4056,8.4051,8.4046,8.4153,8.4162,8.4171,8.433,0,0,8.4198,8.4202,0,0,0,0,0,0,0,0,8.3875,8.3891,8.4011,8.4011,8.401,8.408,8.4085,8.4204,8.4062,8.4041,8.4049,8.4043,8.4136,8.4146,8.4177,8.4335,8.434,8.4199,8.4205,8.4209,8.4211,0,0,0,0,0,0,0,8.3868,8.3886,8.4075,8.4013,8.4012,8.3994,8.4004,8.4107,8.4116,8.4042,8.4037,8.405,8.4134,8.4168,8.4179,8.4341,8.4199,8.4207,8.4213,8.4216,8.4639,8.4645,0,0,0,0,0,0,8.3862,8.3881,8.4071,8.4078,8.3928,8.4003,8.4014,8.4063,8.4115,8.4118,8.4054,8.4046,8.4155,8.4168,8.4182,8.4375,8.4209,8.4217,8.4222,8.4634,8.4641,8.4647,0,0,0,0,0,0,8.3857,8.388,8.4067,8.3978,8.4,8.4013,8.4069,8.4068,8.4101,8.4124,8.4125,8.4087,8.4152,8.4169,8.4295,8.4377,8.4221,8.4229,8.4627,8.4636,8.4644,8.476,0,0,0,0,0,0,8.385,8.3879,8.3938,8.398,8.4005,8.4177,8.4073,8.4073,8.4117,8.4107,8.4155,8.4158,8.4149,8.4281,8.4304,8.4387,8.4237,8.4619,8.4631,8.4641,8.4749,8.4772,8.4791,0,0,0,0,0,8.3841,8.3967,8.3942,8.3965,8.408,8.4182,8.4197,8.4183,8.4124,8.4185,8.42,8.4156,8.4364,8.4295,8.4319,8.4407,8.4614,8.4628,8.464,8.474,8.4767,8.4791,0,0,0,0,0,0,8.3935,8.3972,8.3944,8.4087,8.4132,8.4168,8.4245,8.4213,8.4276,8.4264,8.4245,8.4257,8.4389,8.441,8.4332,8.4566,8.448,8.4499,8.4547,8.4574,8.4595,8.4588,8.4244,0,0,0,0,0,8.3972,8.4051,8.4079,8.4203,8.4227,8.4232,8.4276,8.4262,8.4308,8.4327,8.4351,8.4398,8.4474,8.4525,8.4596,8.4751,8.4762,8.4824,8.4845,8.4862,8.4879,8.4966,8.4995,8.469,8.4689,8.4689,0,0,8.405,8.408,8.4131,8.4222,8.4255,8.4339,8.4249,8.434,8.4403,8.4341,8.4461,8.4481,8.4532,8.4674,8.4738,8.4696,8.4966,8.4879,8.4892,8.49,8.4982,8.5011,8.5037,8.4698,8.4697,8.4695,0,0,8.4236,8.4265,8.4373,8.4408,8.446,8.4463,8.4489,8.4531,8.4542,8.4662,8.4618,8.4693,8.4823,8.4863,8.49,8.5104,8.5068,8.5128,8.5239,8.5324,8.5348,8.5369,8.5445,8.5472,8.5144,8.5144,8.5144,0,8.4326,8.445,8.4432,8.4528,8.4571,8.4519,8.4629,8.4664,8.4737,8.4769,8.472,8.4885,8.4916,8.5068,8.5118,8.5149,8.518,8.5123,8.5346,8.5367,8.5386,8.5458,8.5486,8.5151,8.5151,8.515,8.5149,0,8.4561,8.4647,8.4728,8.48,8.4852,8.4954,8.4954,8.5009,8.4991,8.5,8.5125,8.516,8.5239,8.5274,8.5256,8.5425,8.5397,8.5348,8.5262,8.5423,8.549,8.5517,8.5162,8.5159,8.5157,8.5155,0,0,8.4808,8.487,8.4901,8.4934,8.4988,8.5055,8.5157,8.5234,8.5283,8.5335,8.5421,8.5534,8.5489,8.5532,8.5519,8.5594,8.5757,8.5535,8.5536,8.5577,8.5948,8.5986,8.6018,8.5732,8.5737,8.5741,8.5944,0,8.4999,8.5175,8.5163,8.5329,8.5411,8.5363,8.5452,8.5496,8.5508,8.5579,8.5592,8.5674,8.5607,8.5633,8.5704,8.5722,8.5831,8.5706,8.5814,8.5819,8.5805,8.6053,8.6094,8.6284,8.597,8.5974,8.5978,0,8.5244,8.5306,8.5481,8.5525,8.5559,8.5639,8.571,8.5779,8.5828,8.5832,8.5881,8.5856,8.5961,8.5871,8.6016,8.5932,8.5976,8.5991,8.5998,8.6009,8.5909,8.6074,8.6343,8.6373,8.6018,8.6015,8.6012,0,8.5411,8.5538,8.5659,8.5689,8.5743,8.5801,8.5826,8.5871,8.5919,8.5981,8.6013,8.6087,8.6128,8.6187,8.6184,8.6118,8.6333,8.6242,8.634,8.6341,8.6389,8.6387,8.6673,8.6413,8.6413,8.6412,8.6412,0,8.5627,8.5736,8.5736,8.5811,8.5933,8.5919,8.6041,8.606,8.61,8.618,8.6142,8.6218,8.6208,8.6285,8.6283,8.6406,8.6424,8.6431,8.643,8.6436,8.6436,8.6466,8.6454,8.642,8.6418,8.6417,8.6415,0,8.5835,8.5838,8.5968,8.6009,8.6022,8.6111,8.6147,8.6219,8.6227,8.6329,8.6352,8.6366,8.6455,8.6457,8.6558,8.6557,8.6708,8.669,8.6692,8.6689,8.6789,8.6781,8.7106,8.715,8.686,8.6863,8.6865,0,8.5973,8.6057,8.6107,8.6157,8.6187,8.6268,8.6317,8.6307,8.636,8.6424,8.649,8.6575,8.6642,8.6786,8.6807,8.6885,8.6871,8.698,8.6882,8.6887,8.6876,8.6872,8.6882,8.6999,8.7003,8.7005,8.7007,0,8.622,8.6218,8.629,8.6364,8.6424,8.6481,8.6535,8.6578,8.6574,8.6636,8.6726,8.6779,8.6883,8.6969,8.7045,8.7073,8.7042,8.7037,8.7065,8.7073,8.7072,8.7077,8.6746,8.703,8.7028,8.7026,8.7025,8.7024,8.6399,8.6473,8.652,8.6603,8.6642,8.6693,8.6764,8.6782,8.6856,8.694,8.693,8.7031,8.7081,8.718,8.7214,8.7294,8.7257,8.7296,8.7306,8.7317,8.7329,8.7057,8.7308,8.7307,8.7306,8.7306,8.7305,0,8.6647,8.6675,8.6751,8.6827,8.6893,8.6856,8.6913,8.6971,8.7061,8.7109,8.7177,8.7282,8.7366,8.7393,8.7475,8.7534,8.7522,8.7556,8.7553,8.7561,8.7356,8.7326,8.7565,8.7565,8.7565,8.7565,8.7565,8.7565,8.6784,8.6906,8.6911,8.7053,8.7081,8.718,8.7216,8.7264,8.7303,8.7422,8.7492,8.7509,8.755,8.7635,8.7711,8.7716,8.775,8.7791,8.7792,8.7601,8.7575,8.755,8.7521,8.7798,8.7798,8.7989,8.7991,8.7993]},{"header":{"parameterUnit":"m.s-1","parameterCategory":1,"la1":30.2991,"la2":30.254,"lo1":-89.0895,"lo2":-89.0444,"dy":0.0017,"dx":0.0017,"nx":28,"ny":28,"refTime":"2025-03-05T09:00:00:Z","depth":0,"parameterNumber":3,"parameterNumberName":"V-component_of_WINDS"},"data":[0,0,0,0,0,0,0,0,0,0,0,0,0,0,0,0,0,0,0,0,0,0,0,0,0,0,0,0,0,0,0,0,0,0,0,0,0,0,0,0,0,0,0,0,0,0,0,0,0,0,0,0,0,0,0,0,0,0,-0.8834,-0.8834,0,-0.8789,-0.8788,-0.8788,-0.8801,-0.8802,-0.8803,-0.8804,-0.8754,-0.8752,-0.8749,0,0,0,0,0,0,0,0,0,0,0,0,0,-0.8931,-0.8929,-0.8834,-0.8834,-0.8833,-0.8789,-0.8788,-0.8787,-0.8801,-0.8802,-0.8803,-0.8804,-0.8754,-0.8752,-0.8749,0,0,0,0,0,0,0,0,0,0,0,0,0,-0.8887,-0.8928,-0.8834,-0.8834,-0.8834,-0.8789,-0.8788,-0.8787,-0.88,-0.8802,-0.8803,-0.8805,-0.8755,-0.8752,-0.8749,-0.87,0,0,-0.8739,-0.8737,0,0,0,0,0,0,0,0,-0.889,-0.8884,-0.8835,-0.8834,-0.8834,-0.8802,-0.8804,-0.8758,-0.88,-0.8813,-0.8804,-0.8805,-0.8768,-0.8764,-0.8752,-0.8698,-0.8696,-0.8738,-0.8736,-0.8735,-0.8734,0,0,0,0,0,0,0,-0.8893,-0.8886,-0.8816,-0.8834,-0.8833,-0.8836,-0.8831,-0.8795,-0.8783,-0.8812,-0.8813,-0.8807,-0.8768,-0.8756,-0.8751,-0.8695,-0.8739,-0.8736,-0.8734,-0.8732,-0.86,-0.8598,0,0,0,0,0,0,-0.8896,-0.8888,-0.8818,-0.8815,-0.8866,-0.8833,-0.8828,-0.8811,-0.8784,-0.8781,-0.8806,-0.8808,-0.876,-0.8755,-0.875,-0.8692,-0.8735,-0.8732,-0.873,-0.8601,-0.8599,-0.8598,0,0,0,0,0,0,-0.8898,-0.889,-0.8819,-0.8852,-0.8843,-0.883,-0.881,-0.8809,-0.8796,-0.8779,-0.8777,-0.8796,-0.8761,-0.8754,-0.8713,-0.869,-0.873,-0.8727,-0.8603,-0.8601,-0.8598,-0.8575,0,0,0,0,0,0,-0.8901,-0.8891,-0.8872,-0.8851,-0.8841,-0.8784,-0.8809,-0.8807,-0.8791,-0.8793,-0.8769,-0.8766,-0.8762,-0.8718,-0.871,-0.8686,-0.8725,-0.8605,-0.8602,-0.8599,-0.8578,-0.8572,-0.8568,0,0,0,0,0,-0.8905,-0.8866,-0.8871,-0.8863,-0.8818,-0.8782,-0.8777,-0.8774,-0.8789,-0.877,-0.876,-0.8767,-0.8694,-0.8713,-0.8704,-0.868,-0.8606,-0.8603,-0.8599,-0.858,-0.8573,-0.8568,0,0,0,0,0,0,-0.8883,-0.8863,-0.8869,-0.8823,-0.8804,-0.8785,-0.8761,-0.8766,-0.8742,-0.8745,-0.8742,-0.8736,-0.8694,-0.8683,-0.8705,-0.8632,-0.8652,-0.8647,-0.8641,-0.8634,-0.8629,-0.8633,-0.8722,0,0,0,0,0,-0.8874,-0.8847,-0.8831,-0.8792,-0.8783,-0.8773,-0.8758,-0.8757,-0.8738,-0.873,-0.8716,-0.8696,-0.8669,-0.8651,-0.8625,-0.8577,-0.8572,-0.8555,-0.855,-0.8546,-0.8541,-0.8516,-0.8509,-0.8586,-0.8586,-0.8586,0,0,-0.8853,-0.8839,-0.8822,-0.8787,-0.8773,-0.8746,-0.8767,-0.8736,-0.8716,-0.8725,-0.8685,-0.8675,-0.8652,-0.8608,-0.8587,-0.8597,-0.8519,-0.8542,-0.8538,-0.8536,-0.8512,-0.8505,-0.8498,-0.8584,-0.8584,-0.8585,0,0,-0.88,-0.8787,-0.8754,-0.874,-0.8719,-0.8713,-0.8705,-0.8685,-0.8679,-0.864,-0.8647,-0.8622,-0.8575,-0.8559,-0.8545,-0.8489,-0.8495,-0.8481,-0.8454,-0.8429,-0.8423,-0.8418,-0.8399,-0.8392,-0.8476,-0.8476,-0.8476,0,-0.8777,-0.8736,-0.8736,-0.8705,-0.869,-0.8699,-0.8665,-0.8651,-0.8622,-0.8612,-0.8623,-0.8566,-0.8551,-0.8504,-0.849,-0.8478,-0.8469,-0.8483,-0.8424,-0.8419,-0.8414,-0.8396,-0.8388,-0.8474,-0.8475,-0.8475,-0.8475,0,-0.8709,-0.8681,-0.8656,-0.863,-0.8612,-0.858,-0.8574,-0.8556,-0.8558,-0.8551,-0.8512,-0.8495,-0.8467,-0.8455,-0.8456,-0.8408,-0.8415,-0.8425,-0.8446,-0.8405,-0.8388,-0.8381,-0.8472,-0.8473,-0.8473,-0.8474,0,0,-0.8641,-0.8616,-0.8607,-0.8596,-0.8574,-0.8552,-0.8521,-0.8494,-0.8479,-0.8459,-0.8433,-0.8395,-0.8405,-0.8389,-0.8388,-0.8366,-0.8325,-0.838,-0.8379,-0.837,-0.8272,-0.8265,-0.8257,-0.8329,-0.8327,-0.8326,-0.8275,0,-0.8587,-0.8533,-0.8533,-0.8483,-0.8458,-0.8467,-0.844,-0.8423,-0.8416,-0.8393,-0.8386,-0.8359,-0.8374,-0.8364,-0.8344,-0.8334,-0.8305,-0.8338,-0.8304,-0.8303,-0.831,-0.8248,-0.8239,-0.8191,-0.8268,-0.8267,-0.8266,0,-0.8517,-0.8497,-0.8445,-0.8429,-0.8418,-0.8394,-0.8371,-0.8349,-0.8331,-0.8327,-0.8311,-0.8313,-0.8282,-0.8304,-0.826,-0.8283,-0.8269,-0.8263,-0.8261,-0.8257,-0.8282,-0.8243,-0.8176,-0.8169,-0.8255,-0.8256,-0.8257,0,-0.8474,-0.8434,-0.8398,-0.8388,-0.8368,-0.8351,-0.8341,-0.8325,-0.831,-0.8289,-0.8279,-0.8254,-0.8241,-0.8222,-0.8218,-0.8234,-0.8175,-0.8196,-0.8171,-0.8171,-0.8158,-0.8159,-0.8088,-0.8149,-0.8149,-0.8149,-0.8149,0,-0.8415,-0.8383,-0.8379,-0.8357,-0.8322,-0.8321,-0.8286,-0.8278,-0.8264,-0.824,-0.8246,-0.8224,-0.822,-0.8197,-0.8194,-0.8159,-0.8152,-0.8149,-0.8148,-0.8149,-0.8149,-0.814,-0.8143,-0.8147,-0.8148,-0.8148,-0.8148,0,-0.836,-0.8356,-0.8318,-0.8303,-0.8298,-0.8273,-0.826,-0.8239,-0.8233,-0.8204,-0.8197,-0.8188,-0.8161,-0.8156,-0.8124,-0.8122,-0.808,-0.8083,-0.8087,-0.8087,-0.8063,-0.8066,-0.7984,-0.7973,-0.804,-0.804,-0.8039,0,-0.8323,-0.8299,-0.8282,-0.8267,-0.8257,-0.8233,-0.8218,-0.8217,-0.8201,-0.818,-0.8162,-0.8136,-0.8116,-0.8073,-0.8063,-0.8039,-0.8041,-0.8014,-0.8038,-0.8039,-0.8042,-0.8044,-0.8042,-0.801,-0.8009,-0.8008,-0.8008,0,-0.8257,-0.8257,-0.8235,-0.8214,-0.8196,-0.8179,-0.8162,-0.815,-0.8146,-0.8128,-0.8102,-0.8086,-0.8055,-0.8029,-0.8006,-0.7996,-0.8001,-0.8001,-0.7994,-0.7994,-0.7998,-0.7996,-0.8075,-0.8003,-0.8003,-0.8004,-0.8004,-0.8004,-0.821,-0.819,-0.8175,-0.8152,-0.814,-0.8125,-0.8105,-0.8098,-0.8076,-0.8051,-0.8052,-0.8023,-0.8007,-0.7976,-0.7965,-0.7942,-0.7951,-0.794,-0.7938,-0.7936,-0.7934,-0.8001,-0.7938,-0.7938,-0.7938,-0.7938,-0.7938,0,-0.8146,-0.8137,-0.8116,-0.8093,-0.8075,-0.8083,-0.8066,-0.805,-0.8025,-0.801,-0.799,-0.7961,-0.7937,-0.7926,-0.7902,-0.7886,-0.7889,-0.788,-0.7882,-0.7879,-0.7927,-0.7936,-0.7879,-0.7879,-0.7879,-0.7879,-0.7879,-0.7879,-0.811,-0.8077,-0.8075,-0.8036,-0.8027,-0.8,-0.799,-0.7976,-0.7964,-0.7931,-0.7912,-0.7906,-0.7893,-0.7868,-0.7847,-0.7844,-0.7836,-0.7826,-0.7825,-0.787,-0.7876,-0.7882,-0.789,-0.7824,-0.7824,-0.7779,-0.7779,-0.7779]}]]